カタログに戻る

OPS 4682 DEB

運用中PO
NORAD 17666·DEBRIS·🇺🇸 United States

打ち上げ Apr 3, 1965 から Vandenberg Space Force Base

Loading…

次のパス (今後24時間)

TLE

最新Source: Space-Track

元期: Sep 14, 2026, 06:55 UTC

1 17666U 65027V   26257.28822664  .00001301  00000-0  44407-2 0  9992
2 17666  90.2531  14.0333 0042243 210.5277 177.7778 12.97450917961365

AllMySatでOPS 4682 DEBをリアルタイム追跡

Download on the App Store